Time,TemperatureF,DewpointF,PressureIn,WindDirection,WindDirectionDegrees,WindSpeedMPH,WindSpeedGustMPH,Humidity,HourlyPrecipIn,Conditions,Clouds,dailyrainin,SoftwareType,DateUTC
2013-01-28 00:04:00,71.0,65.0,30.29,East,100,2.0,8.0,80,0.00,,,0.01,,2013-01-28 05:04:00,
2013-01-28 00:12:00,71.0,65.0,30.29,East,100,2.0,8.0,80,0.00,,,0.01,,2013-01-28 05:12:00,
2013-01-28 00:22:00,70.0,64.0,30.28,East,98,1.0,8.0,81,0.00,,,0.01,,2013-01-28 05:22:00,
2013-01-28 00:32:00,70.0,64.0,30.28,East,98,1.0,8.0,81,0.00,,,0.01,,2013-01-28 05:32:00,
2013-01-28 00:42:00,70.0,64.0,30.28,East,98,1.0,8.0,81,0.00,,,0.01,,2013-01-28 05:42:00,
2013-01-28 00:52:00,70.0,64.0,30.28,East,82,2.0,5.0,80,0.00,,,0.01,,2013-01-28 05:52:00,
2013-01-28 01:02:00,70.0,64.0,30.27,ESE,118,3.0,6.0,81,0.00,,,0.01,,2013-01-28 06:02:00,
2013-01-28 01:11:00,70.0,64.0,30.27,ESE,118,3.0,6.0,81,0.00,,,0.01,,2013-01-28 06:11:00,
2013-01-28 01:22:00,71.0,64.0,30.27,East,91,3.0,11.0,79,0.00,,,0.01,,2013-01-28 06:22:00,
2013-01-28 01:32:00,71.0,65.0,30.27,ESE,111,4.0,8.0,80,0.00,,,0.01,,2013-01-28 06:32:00,
2013-01-28 01:42:00,71.0,65.0,30.27,ESE,111,4.0,8.0,80,0.00,,,0.01,,2013-01-28 06:42:00,
2013-01-28 01:52:00,71.0,65.0,30.27,ENE,67,4.0,9.0,80,0.00,,,0.01,,2013-01-28 06:52:00,
2013-01-28 02:03:00,71.0,64.0,30.27,ENE,71,4.0,10.0,79,0.00,,,0.01,,2013-01-28 07:03:00,
2013-01-28 02:11:00,71.0,64.0,30.27,ENE,71,4.0,10.0,79,0.00,,,0.01,,2013-01-28 07:11:00,
2013-01-28 02:22:00,71.0,64.0,30.27,ESE,102,4.0,13.0,79,0.00,,,0.01,,2013-01-28 07:22:00,
2013-01-28 02:32:00,71.0,65.0,30.26,ESE,103,4.0,11.0,80,0.00,,,0.01,,2013-01-28 07:32:00,
2013-01-28 02:42:00,71.0,65.0,30.26,ESE,103,4.0,11.0,80,0.00,,,0.01,,2013-01-28 07:42:00,
2013-01-28 02:51:00,71.0,64.0,30.26,SE,126,4.0,9.0,79,0.00,,,0.01,,2013-01-28 07:51:00,
2013-01-28 03:01:00,71.0,64.0,30.26,East,96,3.0,8.0,79,0.00,,,0.01,,2013-01-28 08:01:00,
2013-01-28 03:11:00,71.0,64.0,30.26,East,96,3.0,8.0,79,0.00,,,0.01,,2013-01-28 08:11:00,
2013-01-28 03:21:00,70.0,63.0,30.27,East,92,3.0,8.0,79,0.00,,,0.01,,2013-01-28 08:21:00,
2013-01-28 03:32:00,71.0,65.0,30.26,ESE,103,3.0,8.0,80,0.00,,,0.01,,2013-01-28 08:32:00,
2013-01-28 03:42:00,71.0,65.0,30.26,ESE,103,3.0,8.0,80,0.00,,,0.01,,2013-01-28 08:42:00,
2013-01-28 03:52:00,70.0,64.0,30.26,ESE,110,4.0,10.0,80,0.00,,,0.01,,2013-01-28 08:52:00,
2013-01-28 04:02:00,70.0,63.0,30.26,ESE,103,3.0,9.0,79,0.00,,,0.01,,2013-01-28 09:02:00,
2013-01-28 04:12:00,70.0,63.0,30.26,ESE,103,3.0,9.0,79,0.00,,,0.01,,2013-01-28 09:12:00,
2013-01-28 04:22:00,70.0,63.0,30.26,ESE,105,3.0,9.0,79,0.00,,,0.01,,2013-01-28 09:22:00,
2013-01-28 04:32:00,70.0,63.0,30.26,ESE,115,5.0,9.0,79,0.00,,,0.01,,2013-01-28 09:32:00,
2013-01-28 04:42:00,70.0,63.0,30.26,ESE,115,5.0,9.0,79,0.00,,,0.01,,2013-01-28 09:42:00,
2013-01-28 04:52:00,70.0,64.0,30.26,East,101,2.0,7.0,80,0.00,,,0.01,,2013-01-28 09:52:00,
2013-01-28 05:02:00,70.0,64.0,30.26,East,92,3.0,8.0,81,0.00,,,0.01,,2013-01-28 10:02:00,
2013-01-28 05:11:00,70.0,64.0,30.26,East,92,3.0,8.0,81,0.00,,,0.01,,2013-01-28 10:11:00,
2013-01-28 05:21:00,70.0,64.0,30.26,East,91,2.0,7.0,82,0.00,,,0.01,,2013-01-28 10:21:00,
2013-01-28 05:32:00,70.0,64.0,30.26,ENE,70,3.0,9.0,82,0.00,,,0.01,,2013-01-28 10:32:00,
2013-01-28 05:42:00,70.0,64.0,30.26,ENE,70,3.0,9.0,82,0.00,,,0.01,,2013-01-28 10:42:00,
2013-01-28 05:52:00,70.0,64.0,30.26,ESE,113,2.0,5.0,82,0.00,,,0.01,,2013-01-28 10:52:00,
2013-01-28 06:02:00,70.0,65.0,30.27,ESE,102,1.0,5.0,83,0.00,,,0.01,,2013-01-28 11:02:00,
2013-01-28 06:11:00,70.0,65.0,30.27,ESE,102,1.0,5.0,83,0.00,,,0.01,,2013-01-28 11:11:00,
2013-01-28 06:22:00,69.0,64.0,30.27,East,94,1.0,5.0,83,0.00,,,0.01,,2013-01-28 11:22:00,
2013-01-28 06:32:00,69.0,64.0,30.27,East,86,2.0,5.0,84,0.00,,,0.01,,2013-01-28 11:32:00,
2013-01-28 06:42:00,69.0,64.0,30.27,East,86,2.0,5.0,84,0.00,,,0.01,,2013-01-28 11:42:00,
2013-01-28 06:52:00,69.0,65.0,30.27,East,86,1.0,3.0,86,0.00,,,0.01,,2013-01-28 11:52:00,
2013-01-28 07:03:00,69.0,65.0,30.28,East,96,2.0,6.0,86,0.00,,,0.01,,2013-01-28 12:03:00,
2013-01-28 07:12:00,69.0,65.0,30.28,East,96,2.0,6.0,86,0.00,,,0.01,,2013-01-28 12:12:00,
2013-01-28 07:23:00,69.0,65.0,30.28,East,86,2.0,9.0,86,0.00,,,0.01,,2013-01-28 12:23:00,
2013-01-28 07:33:00,70.0,65.0,30.28,East,94,2.0,8.0,85,0.00,,,0.01,,2013-01-28 12:33:00,
2013-01-28 07:42:00,70.0,65.0,30.28,East,94,2.0,8.0,85,0.00,,,0.01,,2013-01-28 12:42:00,
2013-01-28 07:52:00,70.0,65.0,30.29,East,92,2.0,5.0,85,0.00,,,0.01,,2013-01-28 12:52:00,
2013-01-28 08:03:00,70.0,65.0,30.29,East,80,1.0,7.0,85,0.00,,,0.01,,2013-01-28 13:03:00,
2013-01-28 08:12:00,70.0,65.0,30.29,East,80,1.0,7.0,85,0.00,,,0.01,,2013-01-28 13:12:00,
2013-01-28 08:23:00,71.0,65.0,30.29,East,97,3.0,7.0,82,0.00,,,0.01,,2013-01-28 13:23:00,
2013-01-28 08:33:00,73.0,66.0,30.29,East,101,3.0,9.0,79,0.00,,,0.00,,2013-01-28 13:33:00,
2013-01-28 08:42:00,73.0,66.0,30.29,East,101,3.0,9.0,79,0.00,,,0.00,,2013-01-28 13:42:00,
2013-01-28 08:52:00,74.0,66.0,30.29,East,93,5.0,9.0,77,0.00,,,0.00,,2013-01-28 13:52:00,
2013-01-28 09:03:00,75.0,67.0,30.30,East,93,4.0,11.0,77,0.00,,,0.00,,2013-01-28 14:03:00,
2013-01-28 09:12:00,75.0,67.0,30.30,East,93,4.0,11.0,77,0.00,,,0.00,,2013-01-28 14:12:00,
2013-01-28 09:23:00,75.0,67.0,30.30,ESE,106,5.0,10.0,75,0.00,,,0.00,,2013-01-28 14:23:00,
2013-01-28 09:33:00,76.0,67.0,30.31,ESE,106,5.0,11.0,75,0.00,,,0.00,,2013-01-28 14:33:00,
2013-01-28 09:43:00,76.0,67.0,30.31,ESE,106,5.0,11.0,75,0.00,,,0.00,,2013-01-28 14:43:00,
2013-01-28 09:53:00,76.0,67.0,30.31,East,92,3.0,13.0,74,0.00,,,0.00,,2013-01-28 14:53:00,
2013-01-28 10:03:00,76.0,67.0,30.32,East,91,6.0,12.0,74,0.00,,,0.00,,2013-01-28 15:03:00,
2013-01-28 10:13:00,76.0,67.0,30.32,East,91,6.0,12.0,74,0.00,,,0.00,,2013-01-28 15:13:00,
2013-01-28 10:23:00,77.0,68.0,30.32,East,85,4.0,13.0,74,0.00,,,0.00,,2013-01-28 15:23:00,
2013-01-28 10:33:00,76.0,67.0,30.33,East,89,4.0,14.0,75,0.00,,,0.00,,2013-01-28 15:33:00,
2013-01-28 10:43:00,76.0,67.0,30.33,East,89,4.0,14.0,75,0.00,,,0.00,,2013-01-28 15:43:00,
2013-01-28 10:53:00,77.0,68.0,30.33,East,86,4.0,13.0,74,0.00,,,0.00,,2013-01-28 15:53:00,
2013-01-28 11:04:00,78.0,68.0,30.33,ESE,105,5.0,13.0,72,0.00,,,0.00,,2013-01-28 16:04:00,
2013-01-28 11:13:00,78.0,68.0,30.33,ESE,105,5.0,13.0,72,0.00,,,0.00,,2013-01-28 16:13:00,
2013-01-28 11:22:00,77.0,68.0,30.33,ESE,102,4.0,13.0,73,0.00,,,0.00,,2013-01-28 16:22:00,
2013-01-28 11:33:00,76.0,67.0,30.32,East,79,5.0,14.0,73,0.00,,,0.00,,2013-01-28 16:33:00,
2013-01-28 11:43:00,76.0,67.0,30.32,East,79,5.0,14.0,73,0.00,,,0.00,,2013-01-28 16:43:00,
2013-01-28 11:52:00,76.0,67.0,30.32,ESE,108,6.0,10.0,74,0.00,,,0.00,,2013-01-28 16:52:00,
2013-01-28 12:02:00,77.0,67.0,30.32,East,98,6.0,11.0,71,0.00,,,0.00,,2013-01-28 17:02:00,
2013-01-28 12:12:00,77.0,67.0,30.32,East,98,6.0,11.0,71,0.00,,,0.00,,2013-01-28 17:12:00,
2013-01-28 12:23:00,78.0,68.0,30.32,SE,131,7.0,11.0,71,0.00,,,0.00,,2013-01-28 17:23:00,
2013-01-28 12:33:00,77.0,67.0,30.31,SE,139,5.0,13.0,72,0.00,,,0.00,,2013-01-28 17:33:00,
2013-01-28 12:42:00,77.0,67.0,30.31,SE,139,5.0,13.0,72,0.00,,,0.00,,2013-01-28 17:42:00,
2013-01-28 12:52:00,78.0,67.0,30.30,East,89,6.0,13.0,69,0.00,,,0.00,,2013-01-28 17:52:00,
2013-01-28 13:03:00,79.0,67.0,30.29,ESE,111,7.0,13.0,66,0.00,,,0.00,,2013-01-28 18:03:00,
2013-01-28 13:13:00,79.0,67.0,30.29,ESE,111,7.0,13.0,66,0.00,,,0.00,,2013-01-28 18:13:00,
2013-01-28 13:23:00,78.0,66.0,30.29,East,86,7.0,13.0,67,0.00,,,0.00,,2013-01-28 18:23:00,
2013-01-28 13:33:00,79.0,67.0,30.27,ESE,111,7.0,11.0,67,0.00,,,0.00,,2013-01-28 18:33:00,
2013-01-28 13:42:00,79.0,67.0,30.27,ESE,111,7.0,11.0,67,0.00,,,0.00,,2013-01-28 18:42:00,
2013-01-28 13:52:00,80.0,68.0,30.27,ESE,105,5.0,11.0,66,0.00,,,0.00,,2013-01-28 18:52:00,
2013-01-28 14:02:00,80.0,68.0,30.26,ESE,115,5.0,13.0,66,0.00,,,0.00,,2013-01-28 19:02:00,
2013-01-28 14:12:00,80.0,68.0,30.26,ESE,115,5.0,13.0,66,0.00,,,0.00,,2013-01-28 19:12:00,
2013-01-28 14:22:00,79.0,67.0,30.26,East,87,6.0,13.0,67,0.00,,,0.00,,2013-01-28 19:22:00,
2013-01-28 14:33:00,79.0,68.0,30.25,ENE,76,4.0,11.0,68,0.00,,,0.00,,2013-01-28 19:33:00,
2013-01-28 14:42:00,79.0,68.0,30.25,ENE,76,4.0,11.0,68,0.00,,,0.00,,2013-01-28 19:42:00,
2013-01-28 14:52:00,80.0,68.0,30.25,ESE,110,7.0,13.0,66,0.00,,,0.00,,2013-01-28 19:52:00,
2013-01-28 15:03:00,79.0,68.0,30.24,SE,138,3.0,15.0,69,0.00,,,0.00,,2013-01-28 20:03:00,
2013-01-28 15:12:00,79.0,68.0,30.24,SE,138,3.0,15.0,69,0.00,,,0.00,,2013-01-28 20:12:00,
2013-01-28 15:22:00,78.0,67.0,30.25,ESE,117,5.0,16.0,68,0.00,,,0.00,,2013-01-28 20:22:00,
2013-01-28 15:33:00,79.0,67.0,30.24,SSE,153,4.0,13.0,67,0.00,,,0.00,,2013-01-28 20:33:00,
2013-01-28 15:43:00,79.0,67.0,30.24,SSE,153,4.0,13.0,67,0.00,,,0.00,,2013-01-28 20:43:00,
2013-01-28 15:52:00,78.0,67.0,30.24,East,99,6.0,13.0,68,0.00,,,0.00,,2013-01-28 20:52:00,
2013-01-28 16:03:00,79.0,67.0,30.23,ESE,111,5.0,13.0,67,0.00,,,0.00,,2013-01-28 21:03:00,
2013-01-28 16:12:00,79.0,67.0,30.23,ESE,111,5.0,13.0,67,0.00,,,0.00,,2013-01-28 21:12:00,
2013-01-28 16:23:00,78.0,67.0,30.23,ESE,109,4.0,12.0,69,0.00,,,0.00,,2013-01-28 21:23:00,
2013-01-28 16:33:00,77.0,66.0,30.24,East,86,5.0,13.0,70,0.00,,,0.00,,2013-01-28 21:33:00,
2013-01-28 16:43:00,77.0,66.0,30.24,East,86,5.0,13.0,70,0.00,,,0.00,,2013-01-28 21:43:00,
2013-01-28 16:52:00,77.0,66.0,30.24,SSE,157,3.0,13.0,70,0.00,,,0.00,,2013-01-28 21:52:00,
2013-01-28 17:02:00,77.0,67.0,30.24,SE,134,3.0,11.0,72,0.00,,,0.00,,2013-01-28 22:02:00,
2013-01-28 17:12:00,77.0,67.0,30.24,SE,134,3.0,11.0,72,0.00,,,0.00,,2013-01-28 22:12:00,
2013-01-28 17:23:00,77.0,68.0,30.24,ESE,111,2.0,10.0,75,0.00,,,0.00,,2013-01-28 22:23:00,
2013-01-28 17:33:00,76.0,67.0,30.24,ESE,114,4.0,9.0,75,0.00,,,0.00,,2013-01-28 22:33:00,
2013-01-28 17:42:00,76.0,67.0,30.24,ESE,114,4.0,9.0,75,0.00,,,0.00,,2013-01-28 22:42:00,
2013-01-28 17:52:00,76.0,67.0,30.24,ESE,115,3.0,10.0,75,0.00,,,0.00,,2013-01-28 22:52:00,
2013-01-28 18:03:00,75.0,67.0,30.24,ESE,115,3.0,9.0,76,0.00,,,0.00,,2013-01-28 23:03:00,
2013-01-28 18:12:00,75.0,67.0,30.24,ESE,115,3.0,9.0,76,0.00,,,0.00,,2013-01-28 23:12:00,
2013-01-28 18:22:00,75.0,68.0,30.25,ESE,115,3.0,7.0,78,0.00,,,0.00,,2013-01-28 23:22:00,
2013-01-28 18:32:00,74.0,67.0,30.25,SE,131,4.0,10.0,79,0.00,,,0.00,,2013-01-28 23:32:00,
2013-01-28 18:42:00,74.0,67.0,30.25,SE,131,4.0,10.0,79,0.00,,,0.00,,2013-01-28 23:42:00,
2013-01-28 18:52:00,74.0,67.0,30.25,East,99,2.0,9.0,80,0.00,,,0.00,,2013-01-28 23:52:00,
2013-01-28 19:02:00,74.0,68.0,30.25,ESE,120,1.0,7.0,81,0.00,,,0.00,,2013-01-29 00:02:00,
2013-01-28 19:12:00,74.0,68.0,30.25,ESE,120,1.0,7.0,81,0.00,,,0.00,,2013-01-29 00:12:00,
2013-01-28 19:22:00,73.0,66.0,30.26,ESE,123,2.0,5.0,80,0.00,,,0.00,,2013-01-29 00:22:00,
2013-01-28 19:33:00,73.0,67.0,30.26,ESE,112,2.0,5.0,81,0.00,,,0.00,,2013-01-29 00:33:00,
2013-01-28 19:42:00,73.0,67.0,30.26,ESE,112,2.0,5.0,81,0.00,,,0.00,,2013-01-29 00:42:00,
2013-01-28 19:52:00,73.0,67.0,30.26,ESE,117,1.0,5.0,81,0.00,,,0.00,,2013-01-29 00:52:00,
2013-01-28 20:02:00,73.0,67.0,30.26,ESE,114,1.0,7.0,82,0.00,,,0.00,,2013-01-29 01:02:00,
2013-01-28 20:12:00,73.0,67.0,30.26,ESE,114,1.0,7.0,82,0.00,,,0.00,,2013-01-29 01:12:00,
2013-01-28 20:23:00,72.0,66.0,30.26,ESE,121,1.0,5.0,82,0.00,,,0.00,,2013-01-29 01:23:00,
2013-01-28 20:32:00,72.0,67.0,30.26,ESE,113,1.0,3.0,84,0.00,,,0.00,,2013-01-29 01:32:00,
2013-01-28 20:42:00,72.0,67.0,30.26,ESE,113,1.0,3.0,84,0.00,,,0.00,,2013-01-29 01:42:00,
2013-01-28 20:52:00,72.0,67.0,30.26,East,96,1.0,5.0,84,0.00,,,0.00,,2013-01-29 01:52:00,
2013-01-28 21:02:00,72.0,68.0,30.27,East,96,0.0,3.0,86,0.00,,,0.00,,2013-01-29 02:02:00,
2013-01-28 21:12:00,72.0,68.0,30.27,East,96,0.0,3.0,86,0.00,,,0.00,,2013-01-29 02:12:00,
2013-01-28 21:22:00,72.0,67.0,30.27,ESE,113,1.0,4.0,85,0.00,,,0.00,,2013-01-29 02:22:00,
2013-01-28 21:33:00,72.0,67.0,30.27,East,101,2.0,6.0,84,0.00,,,0.00,,2013-01-29 02:33:00,
2013-01-28 21:42:00,72.0,67.0,30.27,East,101,2.0,6.0,84,0.00,,,0.00,,2013-01-29 02:42:00,
2013-01-28 21:52:00,73.0,68.0,30.26,East,92,2.0,9.0,85,0.00,,,0.00,,2013-01-29 02:52:00,
2013-01-28 22:03:00,73.0,68.0,30.26,East,92,2.0,9.0,85,0.00,,,0.00,,2013-01-29 03:03:00,
2013-01-28 22:12:00,73.0,68.0,30.26,East,92,2.0,9.0,85,0.00,,,0.00,,2013-01-29 03:12:00,
2013-01-28 22:22:00,73.0,68.0,30.26,East,97,4.0,9.0,85,0.00,,,0.00,,2013-01-29 03:22:00,
2013-01-28 22:32:00,73.0,68.0,30.26,ESE,114,3.0,7.0,85,0.00,,,0.00,,2013-01-29 03:32:00,
2013-01-28 22:42:00,73.0,68.0,30.26,ESE,114,3.0,7.0,85,0.00,,,0.00,,2013-01-29 03:42:00,
2013-01-28 22:52:00,73.0,69.0,30.26,East,92,4.0,8.0,86,0.00,,,0.00,,2013-01-29 03:52:00,
2013-01-28 23:03:00,73.0,69.0,30.26,East,101,5.0,10.0,87,0.00,,,0.00,,2013-01-29 04:03:00,
2013-01-28 23:12:00,73.0,69.0,30.26,East,101,5.0,10.0,87,0.00,,,0.00,,2013-01-29 04:12:00,
2013-01-28 23:22:00,73.0,69.0,30.26,ESE,115,3.0,9.0,87,0.00,,,0.00,,2013-01-29 04:22:00,
2013-01-28 23:32:00,73.0,69.0,30.26,ESE,107,3.0,10.0,88,0.00,,,0.00,,2013-01-29 04:32:00,
2013-01-28 23:42:00,73.0,69.0,30.26,ESE,107,3.0,10.0,88,0.00,,,0.00,,2013-01-29 04:42:00,
2013-01-28 23:52:00,73.0,70.0,30.25,ESE,109,4.0,7.0,89,0.00,,,0.00,,2013-01-29 04:52:00,